IRIDIUM 176

Last updated on Tue Sep 22 2026 00:03:21 GMT+0000 (Coordinated Universal Time)

1 43923U 19002B 26263.65363373 .00000380 00000+0 56414-4 0 9992 2 43923 86.6092 313.6429 0002408 92.6839 267.4654 14.72250428413291
UTC large
Height (km)
Speed (km/s)
/
Latitude / Longitude
Inclination (degrees)
Orbital Period (minutes)
Azimuth
Elevation
Range (km)
Doppler Factor

Next 0 passes for location: London (51.5072 / 0.1276)

No passes found over London.
IRIDIUM 176